ELY034 EHAM-LLBG

Flight info

Callsign ELY034
Flight time N/A
Altitude 31000
Route LOPIK N852 DIK M150 GEBDA Y173 PABLA DCT UTABA L607 MOMUK DCT GEDSO DCT URAVA DCT ROPUS DCT ETOBI DCT RIVUS DCT MEDUX UM867 KOGAT DCT MAKED UL617 TSL UN130 MES UL609 ALKIS L609 MAROS DCT APLON DCT ZUKKO
Aircraft B748/H-SDE3FGHIM1M2RWXY/LB1

Departure

Time 2026-05-04 07:49
Airport Amsterdam Airport Schiphol (EHAM)

Arrival

Time N/A
Airport Ben Gurion International Airport (LLBG)
Time Latitude Longitude Altitude Speed Heading
2026-05-04 07:26 52.31299 4.75816 5 ft 0 kts 267°
2026-05-04 07:38 52.31265 4.75933 5 ft 0 kts
2026-05-04 07:39 52.31272 4.75933 5 ft 2 kts
2026-05-04 07:39 52.31297 4.75934 5 ft 4 kts 358°
2026-05-04 07:39 52.31337 4.75928 5 ft 7 kts 354°
2026-05-04 07:39 52.31393 4.75918 5 ft 9 kts 356°
2026-05-04 07:40 52.31426 4.75937 5 ft 3 kts 35°
2026-05-04 07:40 52.31441 4.75968 5 ft 3 kts 58°
2026-05-04 07:40 52.31447 4.75998 6 ft 3 kts 76°
2026-05-04 07:40 52.31453 4.76057 6 ft 7 kts 86°
2026-05-04 07:41 52.31447 4.76152 6 ft 10 kts 93°
2026-05-04 07:41 52.31454 4.76289 6 ft 14 kts 86°
2026-05-04 07:41 52.31460 4.76475 6 ft 18 kts 87°
2026-05-04 07:41 52.31465 4.76690 6 ft 19 kts 86°
2026-05-04 07:42 52.31478 4.76891 5 ft 18 kts 85°
2026-05-04 07:42 52.31480 4.77087 5 ft 17 kts 90°
2026-05-04 07:42 52.31451 4.77251 5 ft 14 kts 130°
2026-05-04 07:42 52.31385 4.77351 6 ft 13 kts 136°
2026-05-04 07:43 52.31323 4.77448 6 ft 12 kts 136°
2026-05-04 07:43 52.31249 4.77522 6 ft 13 kts 160°
2026-05-04 07:43 52.31155 4.77514 6 ft 15 kts 189°
2026-05-04 07:43 52.31050 4.77489 6 ft 15 kts 186°
2026-05-04 07:44 52.30952 4.77475 6 ft 14 kts 184°
2026-05-04 07:44 52.30859 4.77464 6 ft 13 kts 183°
2026-05-04 07:44 52.30776 4.77470 5 ft 11 kts 179°
2026-05-04 07:44 52.30700 4.77474 5 ft 8 kts 176°
2026-05-04 07:45 52.30649 4.77491 5 ft 7 kts 161°
2026-05-04 07:45 52.30638 4.77497 5 ft 0 kts 160°
2026-05-04 07:45 52.30636 4.77499 5 ft 2 kts 160°
2026-05-04 07:45 52.30608 4.77517 5 ft 7 kts 157°
2026-05-04 07:46 52.30561 4.77551 5 ft 0 kts 157°
2026-05-04 07:46 52.30560 4.77551 5 ft 0 kts 157°
2026-05-04 07:46 52.30558 4.77553 5 ft 0 kts 157°
2026-05-04 07:46 52.30548 4.77560 5 ft 4 kts 155°
2026-05-04 07:47 52.30512 4.77590 5 ft 8 kts 152°
2026-05-04 07:47 52.30454 4.77638 5 ft 10 kts 158°
2026-05-04 07:47 52.30419 4.77633 5 ft 3 kts 206°
2026-05-04 07:49 52.27912 4.71149 519 ft 221 kts 238°
2026-05-04 07:49 52.27015 4.68963 627 ft 243 kts 227°
2026-05-04 07:49 52.25540 4.67472 904 ft 256 kts 194°
2026-05-04 07:50 52.23768 4.67440 1481 ft 258 kts 165°
2026-05-04 07:50 52.22212 4.68859 2102 ft 259 kts 135°
2026-05-04 07:50 52.21236 4.71323 2745 ft 262 kts 117°
2026-05-04 07:50 52.20412 4.73966 3738 ft 261 kts 108°
2026-05-04 07:51 52.19989 4.76788 5130 ft 257 kts 108°
2026-05-04 07:51 52.19485 4.79608 6544 ft 258 kts 106°
2026-05-04 07:51 52.18899 4.82336 7921 ft 258 kts 116°
2026-05-04 07:51 52.18041 4.84902 9316 ft 258 kts 124°
2026-05-04 07:52 52.17084 4.87388 10573 ft 259 kts 124°
2026-05-04 07:52 52.16171 4.89911 11704 ft 259 kts 122°
2026-05-04 07:52 52.15076 4.92183 12777 ft 252 kts 149°
2026-05-04 07:52 52.13592 4.93678 13770 ft 251 kts 154°
2026-05-04 07:53 52.12068 4.95088 14583 ft 255 kts 155°
2026-05-04 07:54 52.00913 5.05579 18346 ft 340 kts 154°
2026-05-04 07:55 51.98892 5.07476 19228 ft 339 kts 154°
2026-05-04 07:55 51.96860 5.09392 20109 ft 336 kts 155°
2026-05-04 07:55 51.94843 5.11279 20957 ft 333 kts 155°
2026-05-04 07:55 51.93135 5.12793 21628 ft 328 kts 163°
2026-05-04 07:56 51.91001 5.13859 22416 ft 320 kts 169°
2026-05-04 07:56 51.88861 5.14806 23156 ft 317 kts 170°
2026-05-04 07:56 51.88148 5.15118 23407 ft 316 kts 170°
2026-05-04 07:56 51.85517 5.16281 23790 ft 326 kts 170°
2026-05-04 07:57 51.83271 5.17272 23855 ft 343 kts 170°
2026-05-04 07:57 51.80916 5.18313 23949 ft 359 kts 170°
2026-05-04 07:57 51.78456 5.19406 24057 ft 375 kts 169°
2026-05-04 07:57 51.75913 5.20536 24406 ft 383 kts 169°
2026-05-04 07:58 51.73336 5.21678 24920 ft 385 kts 169°
2026-05-04 07:58 51.70746 5.22825 25486 ft 385 kts 170°
2026-05-04 07:58 51.68164 5.23965 26025 ft 385 kts 169°
2026-05-04 07:58 51.65571 5.25106 26568 ft 384 kts 170°
2026-05-04 07:59 51.62994 5.26235 27087 ft 384 kts 171°
2026-05-04 07:59 51.60422 5.27360 27596 ft 383 kts 170°
2026-05-04 07:59 51.57851 5.28495 28078 ft 383 kts 171°
2026-05-04 07:59 51.55288 5.29621 28536 ft 382 kts 170°
2026-05-04 08:00 51.52717 5.30744 29007 ft 381 kts 171°
2026-05-04 08:00 51.50163 5.31851 29436 ft 381 kts 171°
2026-05-04 08:00 51.47607 5.32969 29831 ft 380 kts 171°
2026-05-04 08:02 51.29498 5.40822 31012 ft 410 kts 171°
2026-05-04 08:02 51.23820 5.43014 31000 ft 427 kts 174°
2026-05-04 08:03 51.17865 5.45035 31004 ft 449 kts 170°
2026-05-04 08:03 51.14807 5.46369 30999 ft 460 kts 170°
2026-05-04 08:03 51.11685 5.47751 31002 ft 470 kts 169°
2026-05-04 08:04 51.05280 5.50541 31002 ft 489 kts 169°
2026-05-04 08:04 50.98667 5.53432 31001 ft 491 kts 169°
2026-05-04 08:05 50.92081 5.56286 31005 ft 495 kts 169°
2026-05-04 08:05 50.85426 5.59164 31001 ft 495 kts 169°
2026-05-04 08:06 50.78780 5.62031 31002 ft 495 kts 169°
2026-05-04 08:06 50.72129 5.64888 31001 ft 495 kts 169°
2026-05-04 08:08 50.46929 5.77870 30995 ft 500 kts 165°
2026-05-04 08:11 50.17689 5.94883 30998 ft 497 kts 164°
2026-05-04 08:11 50.07979 6.00466 30995 ft 495 kts 164°
2026-05-04 08:12 50.01516 6.04197 30988 ft 495 kts 164°
2026-05-04 08:12 49.95057 6.07882 30994 ft 494 kts 164°
2026-05-04 08:13 49.88893 6.12774 31018 ft 506 kts 148°
2026-05-04 08:13 49.83858 6.20535 31027 ft 521 kts 130°
2026-05-04 08:14 49.80226 6.30373 31022 ft 528 kts 123°
2026-05-04 08:16 49.66516 6.70458 30994 ft 527 kts 123°
2026-05-04 08:16 49.63058 6.80440 30993 ft 527 kts 122°
2026-05-04 08:17 49.59609 6.90425 31002 ft 528 kts 123°
2026-05-04 08:17 49.56123 7.00398 30999 ft 528 kts 123°
2026-05-04 08:19 49.42169 7.40142 31008 ft 529 kts 123°
2026-05-04 08:20 49.38645 7.50083 31001 ft 530 kts 123°
2026-05-04 08:20 49.35104 7.60014 31003 ft 530 kts 123°
2026-05-04 08:21 49.31564 7.69921 31005 ft 530 kts 123°
2026-05-04 08:21 49.28014 7.79821 31004 ft 530 kts 123°
2026-05-04 08:22 49.24476 7.89632 31007 ft 530 kts 123°
2026-05-04 08:24 49.11054 8.22871 31013 ft 516 kts 142°
2026-05-04 08:24 49.08205 8.26147 31017 ft 510 kts 152°
2026-05-04 08:24 49.01767 8.30314 31033 ft 499 kts 170°
2026-05-04 08:25 48.94924 8.31902 31027 ft 497 kts 175°
2026-05-04 08:25 48.88060 8.33311 31030 ft 497 kts 174°
2026-05-04 08:27 48.67011 8.60277 31029 ft 523 kts 129°
2026-05-04 08:28 48.62745 8.69198 31032 ft 523 kts 129°
2026-05-04 08:28 48.58488 8.78115 31028 ft 522 kts 129°
2026-05-04 08:29 48.54229 8.87008 31019 ft 523 kts 129°
2026-05-04 08:31 48.37117 9.22412 31018 ft 524 kts 129°
2026-05-04 08:33 48.21064 9.51965 31037 ft 519 kts 143°
2026-05-04 08:33 48.18311 9.55487 31040 ft 519 kts 143°
2026-05-04 08:35 47.96934 9.83040 31038 ft 519 kts 143°
2026-05-04 08:35 47.91432 9.90054 31030 ft 520 kts 143°
2026-05-04 08:37 47.77781 10.15236 31045 ft 533 kts 123°
2026-05-04 08:37 47.75912 10.19991 31051 ft 534 kts 123°
2026-05-04 08:38 47.72143 10.29516 31048 ft 534 kts 123°
2026-05-04 08:38 47.68369 10.39045 31044 ft 535 kts 123°
2026-05-04 08:40 47.53193 10.77049 31028 ft 535 kts 123°
2026-05-04 08:41 47.49382 10.86507 31042 ft 535 kts 123°
2026-05-04 08:41 47.45579 10.95914 31037 ft 536 kts 123°
2026-05-04 08:42 47.41746 11.05365 31043 ft 535 kts 123°
2026-05-04 08:42 47.37903 11.14801 31046 ft 536 kts 123°
2026-05-04 08:43 47.34057 11.24218 31043 ft 536 kts 123°
2026-05-04 08:43 47.30204 11.33615 31040 ft 535 kts 123°
2026-05-04 08:44 47.26342 11.43005 31045 ft 535 kts 123°
2026-05-04 08:46 47.10844 11.80361 31069 ft 535 kts 123°
2026-05-04 08:46 47.07017 11.89746 31083 ft 537 kts 120°
2026-05-04 08:47 47.03321 11.99198 31085 ft 538 kts 121°
2026-05-04 08:47 46.99609 12.08732 31112 ft 537 kts 121°
2026-05-04 08:48 46.95898 12.18212 31129 ft 536 kts 121°
2026-05-04 08:48 46.92178 12.27675 31145 ft 536 kts 121°
2026-05-04 08:49 46.88461 12.37112 31151 ft 536 kts 121°
2026-05-04 08:50 46.75372 12.70056 31102 ft 536 kts 121°
2026-05-04 08:51 46.71609 12.79453 31090 ft 537 kts 121°
2026-05-04 08:51 46.67862 12.88780 31089 ft 537 kts 121°
2026-05-04 08:52 46.64083 12.98155 31107 ft 537 kts 121°
2026-05-04 08:52 46.60298 13.07512 31104 ft 537 kts 121°
2026-05-04 08:54 46.45082 13.44810 31112 ft 537 kts 121°
2026-05-04 08:55 46.41206 13.54094 31116 ft 538 kts 125°
2026-05-04 08:55 46.37737 13.61214 31123 ft 539 kts 126°
2026-05-04 09:01 45.91472 14.52649 31132 ft 537 kts 127°
2026-05-04 09:01 45.86929 14.61154 31128 ft 537 kts 127°
2026-05-04 09:02 45.82380 14.69691 31128 ft 538 kts 127°
2026-05-04 09:02 45.77828 14.78181 31135 ft 537 kts 128°
2026-05-04 09:03 45.73303 14.86611 31132 ft 537 kts 128°
2026-05-04 09:03 45.68712 14.95129 31128 ft 537 kts 128°
2026-05-04 09:04 45.64173 15.03530 31129 ft 537 kts 128°
2026-05-04 09:04 45.59595 15.11975 31122 ft 537 kts 128°
2026-05-04 09:05 45.55007 15.20414 31127 ft 538 kts 128°
2026-05-04 09:05 45.50405 15.28854 31126 ft 538 kts 128°
2026-05-04 09:06 45.45811 15.37255 31130 ft 537 kts 128°
2026-05-04 09:08 45.27419 15.70637 31125 ft 537 kts 128°
2026-05-04 09:08 45.22803 15.78954 31129 ft 537 kts 128°
2026-05-04 09:09 45.18170 15.87276 31127 ft 537 kts 128°
2026-05-04 09:09 45.13538 15.95575 31127 ft 537 kts 128°
2026-05-04 09:10 45.08896 16.03863 31127 ft 537 kts 128°
2026-05-04 09:10 45.04274 16.12095 31126 ft 538 kts 128°